Location: Macksville High School
(37.9611°N, 99.9654°W)
Time: 13:32:29
(UTC+00:00)

USA 267 - Pass Details

Date: 27 February 2020
Orbit: 1101 x 1107 km, 123.0° (Epoch: 31 March)

Event Time Altitude Azimuth Distance (km) Brightness Sun altitude
Rises 12:21:25 0° 151° (SSE) 3,903 6.6 -11.3°
Reaches altitude 10° 12:23:59 10° 156° (SSE) 2,948 5.9 -10.8°
Maximum altitude 12:30:15 49° 231° (SW) 1,382 3.5 -9.6°
Drops below altitude 10° 12:36:33 10° 305° (NW) 2,960 5.0 -8.3°
Enters shadow 12:38:33 - 310° (NW) 3,699 5.5 -7.9°
